Harlingen, TX

4:12 PM CDT on May 28, 2017 (GMT -0500)
Valley International

Weather History for KHRL - March, 2013

Change the Weather History Date:

Friday, March 22, 2013

  Actual Average Record
Temperature  
Mean Temperature 79 °F 70 °F  
Max Temperature 85 °F 82 °F 95 °F (1952)
Min Temperature 72 °F 59 °F 37 °F (2010)
Degree Days  
Heating Degree Days 0 1  
Month to date heating degree days 36 40  
Since 1 July heating degree days 384 608  
Cooling Degree Days 14 6  
Month to date cooling degree days 106 107  
Year to date cooling degree days 300 232  
Growing Degree Days 28 (Base 50)    
Moisture  
Dew Point 68 °F    
Average Humidity 76    
Maximum Humidity 90    
Minimum Humidity 61    
Precipitation  
Precipitation 0.00 in 0.05 in 0.70 in (1941)
Month to date precipitation 0.03 0.82  
Year to date precipitation 2.77 3.29  
Sea Level Pressure  
Sea Level Pressure 29.65 in    
Wind  
Wind Speed 13 mph (SSE)    
Max Wind Speed 22 mph    
Max Gust Speed 29 mph    
Visibility 10 miles    
Events      
T = Trace of Precipitation, MM = Missing Value Source: NWS Daily Summary

Daily Weather History Graph

Daily Weather History Graph

Search for Another Location

Airport or City:

Trip Planner

Search our weather history database for the weather conditions in past years. The results will help you decide how hot, cold, wet, or windy it might be!

Date:

Astronomy

Mar. 22, 2013 Rise Set
Actual Time 7:32 AM CDT 7:42 PM CDT
Civil Twilight 7:09 AM CDT 8:06 PM CDT
Nautical Twilight 6:42 AM CDT 8:32 PM CDT
Astronomical Twilight 6:15 AM CDT 9:00 PM CDT
Moon 3:33 PM CDT (3/22) 4:09 AM CDT (3/22)
Length of Visible Light 12h 57m
Length of Day
12h 10m
Waxing Gibbous, 77% of the Moon is Illuminated
Mar 22
Waxing Gibbous
Mar 27
Full
Apr 2
Last Quarter
Apr 10
New
Apr 18
First Quarter

Hourly Weather History & Observations

Time (CDT) Temp. Heat Index Dew Point Humidity Pressure Visibility Wind Dir Wind Speed Gust Speed Precip Events Conditions
12:52 AM 72.0 °F - 66.9 °F 84% 29.68 in 10.0 mi SSE 11.5 mph - N/A   Overcast
1:52 AM 73.0 °F - 66.9 °F 81% 29.66 in 10.0 mi SSE 11.5 mph - N/A   Overcast
2:52 AM 73.0 °F - 66.9 °F 81% 29.65 in 10.0 mi South 19.6 mph 25.3 mph N/A   Overcast
3:52 AM 73.0 °F - 66.9 °F 81% 29.63 in 10.0 mi South 17.3 mph 24.2 mph N/A   Overcast
4:36 AM 71.6 °F - 66.2 °F 83% 29.62 in 10.0 mi South 11.5 mph - N/A   Overcast
4:52 AM 72.0 °F - 66.9 °F 84% 29.62 in 10.0 mi South 11.5 mph 19.6 mph N/A   Overcast
5:52 AM 72.0 °F - 66.9 °F 84% 29.62 in 10.0 mi SSE 12.7 mph - N/A   Overcast
6:06 AM 71.6 °F - 66.2 °F 83% 29.62 in 10.0 mi South 13.8 mph - N/A   Overcast
6:52 AM 72.0 °F - 66.9 °F 84% 29.62 in 10.0 mi SSE 11.5 mph - N/A   Overcast
7:52 AM 72.0 °F - 68.0 °F 87% 29.65 in 10.0 mi SSE 10.4 mph - N/A   Overcast
8:52 AM 73.9 °F - 68.0 °F 82% 29.66 in 10.0 mi SSE 12.7 mph - N/A   Overcast
9:50 AM 75.2 °F - 68.0 °F 78% 29.69 in 10.0 mi SSE 12.7 mph - N/A   Overcast
9:52 AM 75.0 °F - 69.1 °F 82% 29.69 in 10.0 mi SSE 12.7 mph - N/A   Overcast
10:52 AM 77.0 °F - 69.1 °F 76% 29.70 in 10.0 mi South 8.1 mph - N/A   Overcast
11:25 AM 78.8 °F - 68.0 °F 69% 29.70 in 10.0 mi South 8.1 mph - N/A   Overcast
11:52 AM 79.0 °F - 68.0 °F 69% 29.70 in 10.0 mi South 10.4 mph - N/A   Overcast
12:04 PM 78.8 °F - 68.0 °F 69% 29.70 in 10.0 mi South 11.5 mph - N/A   Overcast
12:52 PM 80.1 °F 82.7 °F 68.0 °F 67% 29.69 in 10.0 mi SSE 13.8 mph - N/A   Overcast
1:41 PM 80.6 °F 82.7 °F 66.2 °F 61% 29.66 in 10.0 mi South 12.7 mph - N/A   Overcast
1:49 PM 80.6 °F 82.7 °F 66.2 °F 61% 29.66 in 10.0 mi SSE 11.5 mph - N/A   Overcast
1:52 PM 81.0 °F 83.8 °F 68.0 °F 65% 29.66 in 10.0 mi SSE 12.7 mph - N/A   Overcast
2:05 PM 80.6 °F 83.9 °F 69.8 °F 70% 29.65 in 10.0 mi ESE 12.7 mph - N/A   Overcast
2:38 PM 82.4 °F 86.3 °F 69.8 °F 66% 29.63 in 10.0 mi SSE 8.1 mph 17.3 mph N/A   Mostly Cloudy
2:52 PM 82.0 °F 85.5 °F 69.1 °F 65% 29.62 in 10.0 mi SE 10.4 mph - N/A   Mostly Cloudy
3:52 PM 84.0 °F 87.8 °F 69.1 °F 61% 29.61 in 10.0 mi SE 12.7 mph 19.6 mph N/A   Overcast
4:52 PM 82.9 °F 86.5 °F 69.1 °F 63% 29.60 in 10.0 mi ESE 17.3 mph - N/A   Scattered Clouds
5:52 PM 84.2 °F 88.4 °F 69.8 °F 62% 29.60 in 10.0 mi SE 16.1 mph - N/A   Mostly Cloudy
6:37 PM 80.6 °F 83.9 °F 69.8 °F 70% 29.60 in 10.0 mi ESE 17.3 mph - N/A   Scattered Clouds
6:52 PM 79.0 °F - 69.1 °F 72% 29.60 in 10.0 mi SE 15.0 mph - N/A   Partly Cloudy
7:52 PM 75.0 °F - 69.1 °F 82% 29.62 in 10.0 mi ESE 13.8 mph - N/A   Clear
8:52 PM 73.0 °F - 69.1 °F 87% 29.64 in 10.0 mi ESE 12.7 mph - N/A   Partly Cloudy
9:11 PM 73.4 °F - 69.8 °F 88% 29.65 in 10.0 mi ESE 10.4 mph - N/A   Mostly Cloudy
9:52 PM 73.9 °F - 70.0 °F 87% 29.67 in 10.0 mi SE 11.5 mph - N/A   Overcast
10:20 PM 73.4 °F - 69.8 °F 88% 29.67 in 10.0 mi SE 13.8 mph - N/A   Overcast
10:52 PM 73.0 °F - 70.0 °F 90% 29.67 in 10.0 mi SE 11.5 mph - N/A   Overcast
11:52 PM 73.0 °F - 70.0 °F 90% 29.68 in 9.0 mi SSE 12.7 mph - N/A   Overcast